Home   Weather   Mildura   Past weeks

Flag for Australia Past Weather in Mildura, Victoria, Australia — Yesterday and Last 2 Weeks

Now
83 °F

Warm.


Feels Like: 85 °F
Forecast: 72 / 88 °F
Wind: 14 mph from Southwest

Location: Mildura Airport

Current Time: Jan 23, 2017 at 11:45:39 pm

Latest Report: Jan 23, 2017 at 11:00 pm


Visibility: N/A

Pressure: 29.74 "Hg

Humidity: 56%

Dew Point: 65 °F

Location of MilduraLocation

Past Weather in Mildura — Graph

°F

Mildura Temperature Yesterday

Maximum temperature yesterday: 95 °F (at 7:00 pm)
Minimum temperature yesterday: 60 °F (at 7:00 am)
Average temperature yesterday: 78 °F

High & Low Weather Summary for the Past Weeks

 TemperatureHumidityPressure
High109 °F (Jan 17, 5:00 pm)100% (Jan 20, 8:00 am)30.09 "Hg (Jan 20, 8:00 am)
Low55 °F (Jan 21, 7:00 am)4% (Jan 17, 5:00 pm)29.41 "Hg (Jan 20, 4:00 am)
Average78 °F43%29.80 "Hg
* Reported Jan 8 10:00 pm — Jan 23 10:00 pm, Mildura, Weather by CustomWeather, © 2017

Note: Actual official high and low records may vary slightly from our data, if they occured in-between our weather recording intervals... More about our weather records

Advertising

Mildura Weather History for the Previous 24 Hours

Scroll right to see more
 ConditionsComfort  
Time TempWeatherWind HumidityBarometerVisibility
10:00 pm
Mon, Jan 23
86 °FWarm.8 mph45%29.69 "HgN/A
9:00 pm89 °FOvercast.10 mph32%29.65 "HgN/A
8:00 pm92 °FHot.16 mph25%29.62 "HgN/A
7:00 pm103 °FExtremely hot.6 mph15%29.57 "HgN/A
6:00 pm105 °FExtremely hot.9 mph12%29.57 "HgN/A
5:00 pm104 °FExtremely hot.10 mph12%29.58 "HgN/A
4:00 pm102 °FExtremely hot.12 mph11%29.61 "HgN/A
3:00 pm103 °FExtremely hot.10 mph10%29.63 "HgN/A
2:00 pm102 °FExtremely hot.8 mph11%29.65 "HgN/A
1:00 pm100 °FExtremely hot.12 mph11%29.66 "HgN/A
12:00 pm98 °FExtremely hot.8 mph13%29.68 "HgN/A
11:00 am96 °FExtremely hot.8 mph15%29.69 "HgN/A
10:00 am92 °FHot.6 mph24%29.70 "HgN/A
9:00 am86 °FPleasantly warm.5 mph31%29.71 "HgN/A
8:00 am78 °FWarm.No wind45%29.70 "HgN/A
7:00 am69 °FMild.No wind63%29.69 "HgN/A
6:00 am72 °FMild.2 mph61%29.68 "HgN/A
5:00 am72 °FMild.No wind58%29.69 "HgN/A
4:00 am75 °FMild.No wind56%29.69 "HgN/A
3:00 am74 °FOvercast.No wind63%29.70 "HgN/A
2:00 am74 °FMild.5 mph53%29.72 "HgN/A
1:00 am74 °FMild.No wind43%29.74 "HgN/A
12:00 am76 °FPassing clouds.3 mph49%29.76 "HgN/A
11:00 pm
Sun, Jan 22
77 °FWarm.5 mph47%29.77 "HgN/A
Weather by CustomWeather, © 2017

See weather overviewHow to use our weather pages